When you browse on this site, cookies collect data to enhance your experience and personalize the content and advertising you see.
Visit our Privacy Policy to learn more. By continuing to use the site, you agree to this use of cookies and data.
  • In Lithuania
  • List of Countries
  • For 7 days
  • Water Temperature
  • Weather Map
  • Weather Widgets
  • user-avatar
    Login

    Hourly Weather Harare

    Today, 17 February, Monday

    Time Temperature Precipitation Wind Pressure Humidity
    00:00 +19°C° 0.6 mm 3 mps 638 mmHg 94%
    01:00 +19°C° 0.6 mm 3 mps 638 mmHg 95%
    02:00 +18°C° 0 mm 2 mps 638 mmHg 96%
    03:00 +18°C° 0.2 mm 2 mps 638 mmHg 96%
    04:00 +18°C° 0.2 mm 2 mps 638 mmHg 96%
    05:00 +18°C° 0.2 mm 2 mps 638 mmHg 95%
    06:00 +19°C° 0 mm 2 mps 639 mmHg 93%
    07:00 +19°C° 0 mm 2 mps 639 mmHg 91%
    08:00 +20°C° 0 mm 2 mps 640 mmHg 89%
    09:00 +23°C° 0.1 mm 2 mps 640 mmHg 82%
    10:00 +24°C° 0.1 mm 2 mps 640 mmHg 75%
    11:00 +26°C° 0.1 mm 2 mps 640 mmHg 69%
    12:00 +26°C° 0.8 mm 2 mps 640 mmHg 67%
    13:00 +26°C° 0.8 mm 2 mps 639 mmHg 66%
    14:00 +27°C° 0.8 mm 2 mps 639 mmHg 64%
    15:00 +26°C° 0.9 mm 2 mps 638 mmHg 67%
    16:00 +26°C° 0.9 mm 1 mps 638 mmHg 69%
    17:00 +25°C° 0.9 mm 1 mps 637 mmHg 72%
    18:00 +24°C° 0.4 mm 1 mps 638 mmHg 77%
    19:00 +22°C° 0.4 mm 1 mps 638 mmHg 82%
    20:00 +21°C° 0.4 mm 1 mps 638 mmHg 87%
    21:00 +20°C° 0 mm 1 mps 638 mmHg 88%
    22:00 +20°C° 0 mm 1 mps 638 mmHg 90%
    23:00 +18°C° 0 mm 2 mps 638 mmHg 92%

    Tomorrow, 18 February, Tuesday

    Time Temperature Precipitation Wind Pressure Humidity
    00:00 +18°C° 0 mm 2 mps 638 mmHg 92%
    01:00 +18°C° 0 mm 2 mps 638 mmHg 93%
    02:00 +17°C° 0 mm 2 mps 638 mmHg 94%
    03:00 +18°C° 0 mm 1 mps 637 mmHg 93%
    04:00 +18°C° 0 mm 1 mps 637 mmHg 93%
    05:00 +18°C° 0 mm 1 mps 637 mmHg 93%
    06:00 +19°C° 0 mm 1 mps 638 mmHg 89%
    07:00 +19°C° 0 mm 2 mps 639 mmHg 86%
    08:00 +21°C° 0 mm 2 mps 640 mmHg 82%
    09:00 +23°C° 0 mm 2 mps 640 mmHg 73%
    10:00 +25°C° 0 mm 2 mps 641 mmHg 63%
    11:00 +27°C° 0 mm 3 mps 641 mmHg 54%
    12:00 +27°C° 0 mm 3 mps 640 mmHg 52%
    13:00 +28°C° 0 mm 3 mps 640 mmHg 51%
    14:00 +28°C° 0 mm 3 mps 640 mmHg 50%
    15:00 +27°C° 0 mm 3 mps 639 mmHg 53%
    16:00 +27°C° 0 mm 3 mps 639 mmHg 56%
    17:00 +26°C° 0 mm 3 mps 638 mmHg 59%
    18:00 +24°C° 0 mm 2 mps 638 mmHg 65%
    19:00 +21°C° 0 mm 2 mps 638 mmHg 71%
    20:00 +19°C° 0 mm 2 mps 638 mmHg 78%
    21:00 +19°C° 0 mm 2 mps 638 mmHg 81%
    22:00 +18°C° 0 mm 2 mps 639 mmHg 84%
    23:00 +17°C° 0 mm 2 mps 639 mmHg 87%

    Day after tomorrow, 19 February, Wednesday

    Time Temperature Precipitation Wind Pressure Humidity
    00:00 +18°C° 0 mm 1 mps 638 mmHg 85%
    01:00 +18°C° 0 mm 1 mps 638 mmHg 82%
    02:00 +18°C° 0 mm 1 mps 638 mmHg 80%
    03:00 +16°C° 0 mm 1 mps 638 mmHg 81%
    04:00 +16°C° 0 mm 1 mps 638 mmHg 82%
    05:00 +16°C° 0 mm 1 mps 638 mmHg 83%
    06:00 +18°C° 0 mm 2 mps 638 mmHg 78%
    07:00 +19°C° 0 mm 3 mps 639 mmHg 72%
    08:00 +21°C° 0 mm 4 mps 640 mmHg 66%
    09:00 +22°C° 0 mm 3 mps 640 mmHg 60%
    10:00 +25°C° 0 mm 3 mps 641 mmHg 53%
    11:00 +27°C° 0 mm 3 mps 641 mmHg 46%
    12:00 +27°C° 0 mm 3 mps 640 mmHg 46%
    13:00 +28°C° 0 mm 3 mps 640 mmHg 45%
    14:00 +28°C° 0 mm 3 mps 640 mmHg 44%
    15:00 +27°C° 0 mm 2 mps 639 mmHg 49%
    16:00 +27°C° 0 mm 2 mps 639 mmHg 54%
    17:00 +26°C° 0 mm 2 mps 638 mmHg 59%
    18:00 +24°C° 0 mm 2 mps 638 mmHg 66%
    19:00 +22°C° 0 mm 1 mps 638 mmHg 73%
    20:00 +20°C° 0 mm 1 mps 638 mmHg 79%
    21:00 +20°C° 0 mm 1 mps 638 mmHg 83%
    22:00 +19°C° 0 mm 1 mps 638 mmHg 86%
    23:00 +19°C° 0 mm 1 mps 638 mmHg 90%

    20 February, Thursday

    Time Temperature Precipitation Wind Pressure Humidity
    00:00 +19°C° 0 mm 1 mps 638 mmHg 91%
    01:00 +19°C° 0 mm 1 mps 638 mmHg 92%
    02:00 +18°C° 0 mm 1 mps 638 mmHg 93%
    03:00 +18°C° 0 mm 1 mps 638 mmHg 92%
    04:00 +18°C° 0 mm 1 mps 638 mmHg 92%
    05:00 +18°C° 0 mm 1 mps 638 mmHg 91%
    06:00 +19°C° 0 mm 1 mps 638 mmHg 85%
    07:00 +21°C° 0 mm 1 mps 639 mmHg 80%
    08:00 +22°C° 0 mm 1 mps 640 mmHg 74%
    09:00 +24°C° 0 mm 1 mps 640 mmHg 66%
    10:00 +26°C° 0 mm 1 mps 640 mmHg 58%
    11:00 +28°C° 0 mm 1 mps 641 mmHg 50%
    12:00 +28°C° 0.1 mm 1 mps 640 mmHg 50%
    13:00 +28°C° 0.1 mm 1 mps 639 mmHg 50%
    14:00 +29°C° 0.1 mm 1 mps 638 mmHg 50%
    15:00 +28°C° 0.3 mm 1 mps 638 mmHg 54%
    16:00 +27°C° 0.3 mm 1 mps 637 mmHg 58%
    17:00 +27°C° 0.3 mm 1 mps 637 mmHg 62%
    18:00 +25°C° 0.1 mm 1 mps 637 mmHg 69%
    19:00 +23°C° 0.1 mm 1 mps 637 mmHg 76%
    20:00 +21°C° 0.1 mm 1 mps 637 mmHg 83%
    21:00 +21°C° 0.1 mm 1 mps 637 mmHg 85%
    22:00 +20°C° 0.1 mm 1 mps 637 mmHg 87%
    23:00 +19°C° 0.1 mm 2 mps 637 mmHg 89%

    21 February, Friday

    Time Temperature Precipitation Wind Pressure Humidity
    00:00 +20°C° 0 mm 1 mps 637 mmHg 90%
    01:00 +19°C° 0 mm 1 mps 637 mmHg 91%
    02:00 +19°C° 0 mm 1 mps 637 mmHg 92%
    03:00 +19°C° 0 mm 1 mps 637 mmHg 92%
    04:00 +19°C° 0 mm 1 mps 637 mmHg 93%
    05:00 +19°C° 0 mm 1 mps 637 mmHg 93%
    06:00 +20°C° 0 mm 1 mps 637 mmHg 89%
    07:00 +21°C° 0 mm 1 mps 638 mmHg 85%
    08:00 +23°C° 0 mm 1 mps 639 mmHg 81%
    15:00 +30°C° 0 mm 2 mps 638 mmHg 43%
    16:00 +29°C° 0 mm 2 mps 638 mmHg 48%
    17:00 +28°C° 0 mm 2 mps 637 mmHg 52%
    18:00 +26°C° 0 mm 2 mps 637 mmHg 58%
    19:00 +24°C° 0 mm 2 mps 637 mmHg 63%
    20:00 +21°C° 0 mm 2 mps 637 mmHg 69%
    21:00 +21°C° 0 mm 2 mps 637 mmHg 74%
    22:00 +20°C° 0 mm 2 mps 637 mmHg 79%
    23:00 +19°C° 0 mm 2 mps 637 mmHg 84%

    22 February, Saturday

    Time Temperature Precipitation Wind Pressure Humidity
    00:00 +19°C° 0 mm 2 mps 637 mmHg 87%
    01:00 +19°C° 0 mm 2 mps 637 mmHg 90%
    02:00 +19°C° 0 mm 2 mps 636 mmHg 93%
    03:00 +18°C° 0 mm 2 mps 636 mmHg 94%
    04:00 +19°C° 0 mm 1 mps 636 mmHg 94%
    05:00 +19°C° 0 mm 1 mps 636 mmHg 95%
    06:00 +19°C° 0 mm 2 mps 637 mmHg 91%
    07:00 +20°C° 0 mm 2 mps 638 mmHg 87%
    08:00 +23°C° 0 mm 2 mps 639 mmHg 82%
    09:00 +25°C° 0 mm 2 mps 639 mmHg 74%
    10:00 +27°C° 0 mm 1 mps 640 mmHg 66%
    11:00 +29°C° 0 mm 1 mps 640 mmHg 58%
    12:00 +29°C° 0.3 mm 1 mps 639 mmHg 57%
    13:00 +29°C° 0.3 mm 1 mps 638 mmHg 56%
    14:00 +29°C° 0.3 mm 1 mps 638 mmHg 55%
    15:00 +28°C° 0.6 mm 1 mps 637 mmHg 60%
    16:00 +27°C° 0.6 mm 1 mps 637 mmHg 65%
    17:00 +27°C° 0.6 mm 1 mps 636 mmHg 70%
    18:00 +25°C° 0.5 mm 1 mps 636 mmHg 74%
    19:00 +23°C° 0.5 mm 1 mps 636 mmHg 79%
    20:00 +22°C° 0.5 mm 1 mps 636 mmHg 84%
    21:00 +21°C° 0.4 mm 1 mps 636 mmHg 85%
    22:00 +21°C° 0.4 mm 1 mps 637 mmHg 86%
    23:00 +21°C° 0.4 mm 1 mps 637 mmHg 88%
    Show more